This is the latest recevied weather packets stored in our database for station/object AI5YA-13. If no packets are shown the sender has not sent any weather packets the latest 10 day(s).
| Time | Temp. | Humidity | Pressure | Rain* | Wind** | Luminosity | Snow |
|---|---|---|---|---|---|---|---|
| 1777925029 | 28.89° C | 26% | 1010.4 hPa | 0 mm | - | 400 W/m² | - |
| 1777924725 | 28.33° C | 27% | 1010.6 hPa | 0 mm | - | 347 W/m² | - |
| 1777924420 | 28.33° C | 27% | 1010.8 hPa | 0 mm | - | 377 W/m² | - |
| 1777924118 | 28.33° C | 28% | 1011 hPa | 0 mm | - | 331 W/m² | - |
| 1777923814 | 28.33° C | 27% | 1010.9 hPa | 0 mm | - | 322 W/m² | - |
| 1777923510 | 28.33° C | 27% | 1011 hPa | 0 mm | - | 350 W/m² | - |
| 1777923207 | 28.33° C | 27% | 1010.9 hPa | 0 mm | - | 341 W/m² | - |
| 1777922906 | 28.89° C | 28% | 1011 hPa | 0 mm | - | 403 W/m² | - |
| 1777922603 | 28.89° C | 27% | 1010.8 hPa | 0 mm | - | 454 W/m² | - |
| 1777922302 | 28.89° C | 28% | 1011 hPa | 0 mm | - | 517 W/m² | - |
| 1777921999 | 28.89° C | 27% | 1010.9 hPa | 0 mm | - | 506 W/m² | - |
| 1777921694 | 28.33° C | 31% | 1010.9 hPa | 0 mm | - | 494 W/m² | - |
| 1777921390 | 28.33° C | 30% | 1011.1 hPa | 0 mm | - | 419 W/m² | - |
| 1777921087 | 27.78° C | 32% | 1011 hPa | 0 mm | - | 370 W/m² | - |
| 1777920784 | 28.33° C | 32% | 1011.3 hPa | 0 mm | - | 316 W/m² | - |
| 1777920480 | 27.78° C | 33% | 1011.4 hPa | 0 mm | - | 318 W/m² | - |
| 1777920176 | 27.78° C | 32% | 1011.2 hPa | 0 mm | - | 318 W/m² | - |
| 1777919872 | 28.33° C | 33% | 1011.3 hPa | 0 mm | - | 354 W/m² | - |
| 1777919569 | 28.33° C | 32% | 1011.4 hPa | 0 mm | - | 368 W/m² | - |
| 1777919267 | 28.33° C | 32% | 1011.4 hPa | 0 mm | - | 390 W/m² | - |
| 1777918964 | 28.33° C | 31% | 1011.7 hPa | 0 mm | - | 390 W/m² | - |
| 1777918662 | 28.33° C | 31% | 1011.7 hPa | 0 mm | - | 413 W/m² | - |
| 1777918359 | 28.89° C | 31% | 1011.7 hPa | 0 mm | - | 386 W/m² | - |
| 1777918058 | 28.89° C | 32% | 1011.7 hPa | 0 mm | - | 431 W/m² | - |
| 1777917756 | 28.89° C | 30% | 1011.5 hPa | 0 mm | - | 462 W/m² | - |
* Rain latest hour (hover to see other rain measurements)
** Current wind speed in m/s (hover to see current wind gust speed)